STARLINK-5013, 55492

Orbit data source: Space-Track

STARLINK-5013, 55492 is a payload satellite owned by SpaceX/Seattle (US) in LEO that was launched on Thu, 02 Feb 2023 UTC via an FALCON 9 launch vehicle from the Air Force Eastern Test Range (AFETR). Payload-class satellites include a variety of spacecraft equipped with specific instruments for various scientific and technological missions. These include communications satellites like Starlink; space stations such as the ISS; scientific satellites like the Hubble; Earth observation satellites from companies like Planet Labs, Umbra, and HawkEye 360; GPS; miniature CubeSats for education and research; and military/defense satellites.

Loading next visibility...
Identifier
55492, 2023-015AV
Orbit
LEO
Country
Flag of USUS
Related business
Manufacturer
SpaceX/Seattle
Mission
Operational Commercial Communications
Bus & Motor
STARLINK, Unknown motor
Mass
305 kg wet, ~290 kg dry
Launch date (UTC)
2023-02-02 (4 years ago)
Launch vehicle
FALCON 9
Launch site
Air Force Eastern Test Range (AFETR)
Object type
Payload
Rocket body
Debris
Shape & HBR
Box + 1 Pan, 10.1 m
Radar Cross Section
13.562 m², Large (>1 m²)

Expand to show TLE details & history
Last TLE update: 6 hours ago

TLE from 6 hours ago
0 STARLINK-5013
1 55492U 23015AV  26258.43535477 -.00000189  00000-0  26550-5 0  9999
2 55492  43.0047 348.2007 0001572 284.6579  75.4098 15.27576141199613
Epoch: 2026-09-15T10:26Z
TLE epoch observation values (Epoch: 2026-09-15T10:26:54.652Z)
Latitude
-0.00003°
Longitude
-162.92839°
Altitude
482.565 km
Speed
7.626 km/s
True Right ascension
23h 12m 48s
True Declination
0° 00' 00"
Sunlit
Object was in full shadow at epoch
Visualization orbit readout
Latitude
Unknown
Longitude
Unknown
Altitude
Unknown
Speed
Unknown
Apparent Right ascension
Unknown
Apparent Declination
Unknown
Sunlit
N/A
Visualization observer readout
Local Sidereal Time
09:26:46
Azimuth
Unknown
Elevation
Unknown
Doppler factor
Unknown
Orbital elements
Apogee altitude
486.084 km
Perigee altitude
483.926 km
Semi-major axis
6,863.142 km
Eccentricity
0.00016
Inclination
43.0047°
RAAN
348.2007°
Arg. of periapsis
284.6579°
True anomaly
75.42723°
Mean anomaly
75.4098°
Eccentric anomaly
75.41852°
Mean motion
3.81732 °/min
Orbital period
94.31 mins
BSTAR
0.000002655
Loading maneuver chart data...
Computing Atmospheric mass density...
Loading historical data...
Loading historical data...
Loading historical data...
Loading historical data...
Loading historical data...
Loading historical data...
Loading historical data...

Documentation

Showing up to 5 results
|